#timestamp,LO_Frequency,Hit,StdDev 
1605693615.5,286046997.4,N
1605693635.3,286046999.5,N
1605693655.1,286046999.5,N
1605693675.9,286046997.2,N
1605693695.7,286046998.5,N
1605693715.5,286046997.8,N
1605693735.4,286046999.2,N
1605693755.2,286046994.0,Y
1605693775.1,286046999.4,P
1605693776.0,286046999.4,N
1605693795.8,286046998.7,N
1605693815.6,286046998.8,N
1605693835.5,286047000.4,N
1605693855.3,286047000.7,N
1605693875.1,286047000.0,N
1605693895.9,286046998.5,N
1605693915.7,286046997.2,Y
1605693935.6,286046996.6,P
1605693955.4,286046997.1,N
1605693975.2,286046997.6,N
1605693995.1,286046997.7,N
1605693996.0,286046997.7,N
1605694015.8,286046999.0,N
1605694035.7,286046999.9,N
1605694055.5,286046996.7,Y
1605694075.3,286047000.5,P
1605694095.2,286047002.1,N
1605694115.0,286047002.7,N
1605694115.9,286047002.7,N
1605694135.8,286046998.8,N
1605694155.6,286047000.5,N
1605694175.4,286046998.7,N
1605694195.3,286047000.4,N
1605694215.1,286046998.1,N
1605694235.8,286047000.8,N
1605694255.7,286047002.5,N
1605694275.5,286047004.4,N
1605694295.4,286047002.7,N
1605694315.2,286047001.8,N
1605694335.0,286047002.5,N
1605694335.9,286047002.5,N
1605694355.8,286046998.5,N
1605694375.6,286046998.4,N
1605694395.5,286047000.4,N
1605694415.3,286047000.9,N
1605694435.1,286046999.6,N
1605694455.9,286046998.3,N
1605694475.7,286046998.4,N
1605694495.5,286046999.2,N
1605694515.4,286046999.5,N
1605694535.2,286046998.1,N
1605694555.1,286046998.5,N
1605694556.0,286046998.5,N
1605694575.8,286047000.6,N
1605694595.6,286047002.6,N
1605694615.5,286047000.8,N
1605694635.3,286046998.9,N
1605694655.1,286047000.0,N
1605694675.9,286047000.4,N
1605694695.7,286047001.5,N
1605694715.6,286047003.5,N
1605694735.4,286047001.8,N
1605694755.2,286047003.2,N
1605694775.1,286047004.4,N
1605694776.0,286047004.4,N
1605694795.8,286047001.5,N
1605694815.6,286047003.0,N
1605694835.5,286047004.4,N
1605694855.3,286046999.9,N
1605694875.2,286047000.4,N
1605694895.9,286047002.5,N
1605694915.7,286047002.4,N
1605694935.6,286047001.3,N
1605694955.4,286047001.8,N
1605694975.2,286047002.8,N
1605694995.1,286047003.9,N
1605694996.0,286047003.9,N
1605695015.8,286047002.6,N
1605695035.7,286047004.0,N
1605695055.5,286047001.2,N
1605695075.3,286047004.0,N
1605695095.2,286047002.1,N
1605695145.0,286047003.1,E
1605695155.9,286047002.3,N
1605695175.7,286047000.7,P
1605695195.5,286046998.1,N
1605695215.4,286046998.3,N
1605695235.2,286046998.4,N
1605695255.0,286046998.3,N
1605695255.9,286046998.3,N
1605695275.8,286046998.3,N
1605695295.6,286046999.0,N
1605695315.4,286046996.5,N
1605695335.3,286046999.6,N
1605695355.1,286046996.5,N
1605695375.9,286046997.0,N
1605695395.7,286046995.8,N
1605695415.5,286046995.2,N
1605695435.4,286046997.4,N
1605695455.2,286046997.4,N
1605695475.0,286046999.1,N
1605695475.9,286046999.1,N
1605695495.8,286046996.5,N
1605695515.6,286046999.4,N
1605695535.5,286047000.0,N
1605695555.3,286047000.6,N
1605695575.1,286046998.4,N
1605695595.9,286047000.8,N
1605695615.7,286046996.6,N
1605695635.5,286046998.8,N
1605695655.4,286047000.7,N
1605695675.2,286047002.3,N
1605695695.1,286047000.1,N
1605695696.0,286047000.1,N
1605695715.8,286047001.0,N
1605695735.6,286046999.1,N
1605695755.5,286046999.2,N
1605695775.3,286047000.7,N
1605695795.1,286047000.0,N
1605695815.9,286047002.6,N
1605695835.7,286047000.4,N
1605695855.6,286047000.7,N
1605695875.4,286047000.1,N
1605695895.2,286047000.5,N
1605695915.1,286047002.5,N
1605695916.0,286047002.5,N
1605695935.8,286047000.4,N
1605695955.6,286046998.4,N
1605695975.5,286047000.7,N
1605695995.3,286047001.1,N
1605696015.2,286047002.3,N
1605696035.9,286047001.9,N
1605696055.7,286047003.8,N
1605696075.6,286047003.3,N
1605696095.4,286047003.1,N
1605696115.3,286047005.8,Y
1605696135.1,286047006.0,P
1605696136.0,286047006.0,N
1605696155.8,286047001.3,N
1605696175.7,286047000.5,N
1605696195.5,286046997.5,N
1605696215.3,286046998.9,N
1605696235.2,286046997.3,N
1605696255.0,286047000.9,N
1605696255.9,286047000.9,N
1605696275.8,286047000.4,N
1605696295.6,286047002.4,N
1605696315.4,286047001.1,N
1605696335.3,286047000.1,N
1605696355.1,286047000.4,N
1605696375.8,286047000.5,N
1605696395.7,286046998.4,N
1605696415.5,286047000.0,N
1605696435.4,286047000.3,N
1605696455.2,286047001.8,N
1605696475.0,286047001.7,N
1605696475.9,286047001.7,N
1605696495.8,286047003.3,N
1605696515.6,286047005.8,N
1605696535.4,286047006.6,N
1605696555.3,286047007.0,N
1605696575.1,286047009.2,Y
1605696595.9,286047004.5,P
1605696615.7,286047007.2,P
1605696635.5,286047004.1,N
1605696655.4,286047006.0,Y
1605696675.2,286047001.1,P
1605696695.1,286047002.7,N
1605696696.0,286047002.7,N
1605696715.8,286047002.3,N
1605696735.6,286047000.5,N
1605696755.5,286046998.4,N
1605696775.3,286046999.2,N
1605696795.1,286046995.2,N
1605696815.9,286046996.2,N
1605696835.7,286046993.6,N
1605696855.6,286046997.8,N
1605696875.4,286046999.3,N
1605696895.2,286046996.7,N
1605696915.1,286046997.5,N
1605696916.0,286046997.5,N
1605696935.8,286046995.7,N
1605696955.6,286046995.5,N
1605696975.5,286046993.8,N
1605696995.3,286046993.8,N
1605697015.2,286046993.8,N
1605697035.9,286046995.7,N
1605697055.7,286046996.5,N
1605697075.6,286046999.6,N
1605697095.4,286046995.2,N
1605697115.2,286046994.7,N
1605697135.1,286046996.4,N
1605697136.0,286046996.4,N
1605697155.8,286046994.1,N
1605697175.7,286046993.5,N
1605697195.5,286046992.0,N
